Tracking 19706 objects as of 16-Jun-2019
HD Live streaming from Space Station
objects crossing your sky now

COSMOS 761

Track COSMOS 761 now!
10-day predictions
COSMOS 761 is classified as:


NORAD ID: 8285
Int'l Code: 1975-086A
Perigee: 1,406.4 km
Apogee: 1,488.8 km
Inclination: 74.0 °
Period: 114.7 minutes
Semi major axis: 7818 km
RCS: 0.7223 m2 (medium)
Launch date: September 17, 1975
Source: Commonwealth of Independent States (former USSR) (CIS)
Launch site: PLESETSK MISSILE AND SPACE COMPLEX (PKMTR)
aabbcc
Your satellite tracking list
Your tracking list is empty




NASA's NSSDC Master Catalog

Two Line Element Set (TLE):
1  8285U 75086A   19167.20926240 -.00000014  00000-0  13889-4 0  9997
2  8285  74.0080 226.7741 0052725 349.0295  65.1970 12.55770652  5571
Source of the keplerian elements: AFSPC